This demonstration page uses our WeatherBlox Daily Observations layout. Learn more.

Left ArrowRight Arrow

Hourly Observations for March 11, 2022

Temp ( °F °C ) Dew Point ( °F °C ) Humidity (%) Winds ( mph kmh ) Pressure ( in mb ) Visibility ( mi km ) Precip ( " mm )
12:53 am 00:53 Clear 35 1.7 18 -7.8 50 50 NE 25 41 29.93 1014 9 14 0.00 0.00
1:53 am 01:53 Clear 32 0 17 -8.3 54 54 NE 24 39 29.95 1014 7 11 0.00 0.00
2:53 am 02:53 Clear 29 -1.7 16 -8.9 58 58 NNE 22 35 30.02 1017 10 16 0.00 0.00
3:53 am 03:53 Clear 26 -3.3 13 -10.6 57 57 N 21 33 30.06 1018 10 16 0.00 0.00
4:53 am 04:53 Clear 25 -3.9 12 -11.1 58 58 NNE 14 22 30.08 1019 10 16 0.00 0.00
5:53 am 05:53 Cloudy 25 -3.9 12 -11.1 58 58 NNE 13 20 30.11 1020 10 16 0.00 0.00
6:53 am 06:53 Cloudy 25 -3.9 12 -11.1 58 58 N 12 19 30.14 1021 10 16 0.00 0.00
7:53 am 07:53 Sunny 25 -3.9 12 -11.1 58 58 N 13 20 30.19 1022 10 16 0.00 0.00
8:53 am 08:53 Sunny 28 -2.2 12 -11.1 51 51 N 15 24 30.22 1023 10 16 0.00 0.00
9:53 am 09:53 Sunny 30 -1.1 12 -11.1 47 47 N 15 24 30.25 1024 10 16 0.00 0.00
10:53 am 10:53 Cloudy 33 0.6 13 -10.6 43 43 NNE 16 26 30.28 1025 10 16 0.00 0.00
11:53 am 11:53 Mostly Cloudy 36 2.2 14 -10 40 40 N 12 19 30.28 1026 10 16 0.00 0.00
12:53 pm 12:53 Mostly Sunny 38 3.3 15 -9.4 39 39 NNW 9 15 30.28 1025 10 16 0.00 0.00
1:53 pm 13:53 Cloudy 36 2.2 23 -5 59 59 N 22 35 30.28 1026 10 16 0.00 0.00
2:53 pm 14:53 Mostly Sunny 37 2.8 20 -6.7 50 50 NNW 18 30 30.29 1026 10 16 0.00 0.00
3:53 pm 15:53 Partly Cloudy 40 4.4 20 -6.7 45 45 N 16 26 30.31 1026 10 16 0.00 0.00
4:53 pm 16:53 Mostly Sunny 41 5 19 -7.2 41 41 N 15 24 30.33 1027 10 16 0.00 0.00
5:53 pm 17:53 Sunny 41 5 19 -7.2 41 41 N 10 17 30.33 1027 10 16 0.00 0.00
6:53 pm 18:53 Sunny 40 4.4 18 -7.8 41 41 N 9 15 30.35 1028 10 16 0.00 0.00
7:53 pm 19:53 Clear 35 1.7 16 -8.9 46 46 NW 6 9 30.38 1029 10 16 0.00 0.00
8:53 pm 20:53 Clear 33 0.6 15 -9.4 47 47 WNW 6 9 30.40 1029 10 16 0.00 0.00
9:53 pm 21:53 Clear 30 -1.1 14 -10 51 51 Calm 30.41 1030 10 16 0.00 0.00
10:53 pm 22:53 Clear 28 -2.2 14 -10 56 56 NW 5 7 30.41 1030 10 16 0.00 0.00
11:53 pm 23:53 Clear 26 -3.3 12 -11.1 55 55 N 3 6 30.42 1030 10 16 0.00 0.00

Powered by AerisWeather